Regional Weather Roundup
Issued by NWS

Home | Current Version | Previous Version | Graphics & Text | Print | Product List | Glossary On
Versions: 1 2 3 4 5 6 7 8 9 10 11 12 13 14 15 16 17 18 19 20 21 22 23 24 25 26 27 28 29 30 31 32 33 34 35 36 37 38 39 40 41 42 43 44 45 46 47 48 49 50
000
ASUS43 KIND 222359
RWRIN

WEATHER ROUNDUP FOR INDIANA
NATIONAL WEATHER SERVICE INDIANAPOLIS IN
800 PM EDT MON SEP 22 2014

NOTE: "FAIR" INDICATES FEW OR NO CLOUDS BELOW 12,000 FEET WITH NO
SIGNIFICANT WEATHER AND/OR OBSTRUCTIONS TO VISIBILITY.

* - STATION DOES NOT REPORT WEATHER SUCH AS PRECIPITATION OR FOG.

+ - STATION NOT QUALITY CONTROLLED BY THE NATIONAL WEATHER SERVICE.
    USE DATA WITH CAUTION...ESPECIALLY DEWPOINT AND RELATIVE
    HUMIDITY OBSERVATIONS.

INZ001>003-010>013-019-020-230100-
NORTHWEST INDIANA

CITY           SKY/WX    TMP DP  RH WIND       PRES   REMARKS
GARY /AIRPORT/ CLEAR     59  45  58 VRB5      30.25R
KNOX *+        CLEAR     54  46  73 N5        30.25R
MONTICELLO +   CLEAR     55  48  80 N5        30.23S HAZE
VALPARAISO     CLEAR     54  45  71 CALM      30.25S
6HR MIN TEMP:  54; 6HR MAX TEMP:  63;


$$

LMZ046-743>745-230100-
SOUTHERN LAKE MICHIGAN

STATION/POSITION TIME  TEMP WIND        PRES
                       AIR  DIR/SP/G
                 (UTC) (F)  (DEG/KT/KT) (MB)

$$

INZ004-005-014>016-021>024-230100-
NORTH CENTRAL INDIANA

CITY           SKY/WX    TMP DP  RH WIND       PRES   REMARKS
ELKHART        CLEAR     55  45  67 NW3       30.25S
GOSHEN         CLEAR    N/A N/A N/A NW7       30.24R
SOUTH BEND     CLEAR     54  45  71 W5        30.26R
6HR MIN TEMP:  54; 6HR MAX TEMP:  64;

WARSAW +       CLEAR     55  45  67 NW5       30.24R

$$

INZ006>009-017-018-025>027-230100-
NORTHEAST INDIANA

CITY           SKY/WX    TMP DP  RH WIND       PRES   REMARKS
ANGOLA *+      CLEAR     57  48  72 NW3       30.23R
FORT WAYNE     CLEAR     54  46  74 NW3       30.24R
6HR MIN TEMP:  54; 6HR MAX TEMP:  65;


$$

INZ028-029-035-036-043>045-051>053-230100-
WEST CENTRAL INDIANA

CITY           SKY/WX    TMP DP  RH WIND       PRES   REMARKS
GREENCASTLE +  CLEAR     55  46  71 CALM      30.24S
LAFAYETTE      CLEAR     56  50  80 NW3       30.24R
6HR MIN TEMP:  56; 6HR MAX TEMP:  66;

TERRE HAUTE    CLEAR     56  50  80 CALM      30.24R
6HR MIN TEMP:  56; 6HR MAX TEMP:  69;


$$

INZ030>032-037>040-046>048-054>057-064-065-230100-
CENTRAL INDIANA

CITY           SKY/WX    TMP DP  RH WIND       PRES   REMARKS
COLUMBUS       CLEAR     55  46  71 CALM      30.24S
FRANKFORT +    CLEAR     56  49  79 CALM      30.26R
INDIANAPOLIS   CLEAR     61  42  49 N5        30.23S
6HR MIN TEMP:  61; 6HR MAX TEMP:  66;

-EAGLE CREEK   CLEAR     59  47  64 CALM      30.23S
6HR MIN TEMP:  59; 6HR MAX TEMP:  66;

KOKOMO *+      CLEAR     59  45  58 CALM      30.24S
MT COMFORT *+  CLEAR     57  39  51 CALM      30.24S
SHELBYVILLE    CLEAR     56  46  69 N3        30.23S
6HR MIN TEMP:  56; 6HR MAX TEMP:  68;


$$

INZ033-034-041-042-049-050-058-059-230100-
EAST CENTRAL INDIANA

CITY           SKY/WX    TMP DP  RH WIND       PRES   REMARKS
MUNCIE         CLEAR     55  41  59 CALM      30.24R
6HR MIN TEMP:  55; 6HR MAX TEMP:  65;


$$

INZ060-061-067>069-081>083-085>088-230100-
SOUTHWEST INDIANA

CITY           SKY/WX    TMP DP  RH WIND       PRES   REMARKS
EVANSVILLE     CLEAR     63  47  55 N3        30.23R
6HR MIN TEMP:  63; 6HR MAX TEMP:  72;


$$

INZ062-063-066-070>080-084-089>092-230100-
SOUTH CENTRAL AND SOUTHEAST INDIANA

CITY           SKY/WX    TMP DP  RH WIND       PRES   REMARKS
BLOOMINGTON    CLEAR     54  49  83 CALM      30.24R
6HR MIN TEMP:  54; 6HR MAX TEMP:  68;


$$




USA.gov is the U.S. government's official web portal to all federal, state and local government web resources and services.